FW7456 Weather Reports


time (UTC)temp
C
wind
direction
speed
KPH
gust
KPH
rain 1hr
cm
rain 24hr
cm
rain mn
cm
humidity
%
barometer
mb
20260906051606 21 287 4.8 8.0 0.00 0.76 0.00 88 1015.7
20260906050115 21 311 1.6 4.8 0.00 0.76 0.00 91 1016.0
20260906044603 21 344 1.6 6.4 0.00 0.76 0.00 89 1016.0
20260906043111 21 311 1.6 4.8 0.00 0.76 0.00 93 1015.9
20260906041608 21 329 3.2 4.8 0.00 0.76 0.00 93 1016.0
20260906040120 20 335 1.6 4.8 0.00 0.76 0.00 94 1016.3
20260906034605 21 333 1.6 3.2 0.00 0.76 0.76 93 1016.2
20260906033104 21 334 0.0 3.2 0.00 0.76 0.76 91 1016.3
20260906031612 21 336 3.2 6.4 0.00 0.76 0.76 93 1016.2
20260906030110 21 0 0.0 1.6 0.00 0.76 0.76 92 1016.3
20260906024607 22 0 0.0 3.2 0.00 0.76 0.76 90 1016.0
20260906023130 22 0 0.0 6.4 0.00 0.76 0.76 92 1015.9
20260906021603 22 0 0.0 0.0 0.00 0.76 0.76 92 1016.0
20260906014629 22 0 0.0 0.0 0.00 0.76 0.76 93 1016.0
20260906013107 22 0 0.0 4.8 0.00 0.76 0.76 93 1015.7
20260906011605 22 340 3.2 6.4 0.00 0.76 0.76 94 1015.8
20260906010107 23 310 1.6 4.8 0.00 0.76 0.76 93 1015.7
20260906004614 23 0 0.0 6.4 0.00 0.76 0.76 94 1015.5
20260906003109 23 360 1.6 6.4 0.00 0.76 0.76 94 1015.2
20260906001605 23 360 1.6 4.8 0.00 0.76 0.76 93 1015.1
20260906000110 24 0 0.0 0.0 0.00 0.76 0.76 92 1015.2
20260905234606 25 0 0.0 0.0 0.00 0.76 0.76 90 1015.0
20260905233111 25 0 0.0 0.0 0.00 0.76 0.76 88 1015.0
20260905231603 26 0 0.0 1.6 0.00 0.76 0.76 85 1014.7
20260905230109 27 144 1.6 4.8 0.00 0.76 0.76 81 1014.8
20260905224609 26 0 0.0 3.2 0.00 0.76 0.76 83 1014.9
20260905223103 27 115 1.6 6.4 0.00 0.76 0.76 79 1014.7
20260905221602 28 85 0.0 4.8 0.00 0.76 0.76 79 1014.6
20260905220125 27 80 3.2 9.7 0.00 0.76 0.76 78 1014.7
20260905214605 27 108 6.4 12.9 0.00 0.76 0.76 77 1015.0
20260905213107 27 352 3.2 8.0 0.00 0.76 0.76 79 1015.1
20260905211604 26 261 1.6 4.8 0.00 0.76 0.76 86 1015.1
20260905210107 25 293 0.0 4.8 0.00 0.76 0.76 85 1014.9
20260905204605 24 123 1.6 4.8 0.00 0.76 0.76 87 1015.4
20260905203102 23 0 1.6 6.4 0.00 0.76 0.76 89 1015.8
20260905201600 22 327 3.2 8.0 0.00 0.76 0.76 92 1015.7
20260905200109 22 40 0.0 4.8 0.00 0.76 0.76 91 1015.7
20260905194607 21 0 0.0 3.2 0.00 0.76 0.76 92 1016.2
20260905193104 21 343 1.6 4.8 0.00 0.76 0.76 91 1016.1
20260905191606 21 346 3.2 8.0 0.00 0.76 0.76 89 1016.2
20260905190116 21 307 4.8 9.7 0.13 0.76 0.76 91 1016.0
20260905184607 21 307 3.2 8.0 0.76 0.76 0.76 91 1015.7
20260905183125 21 299 4.8 8.0 0.76 0.76 0.76 90 1016.0
20260905181606 21 140 8.0 25.7 0.76 0.76 0.76 84 1016.2
20260905180104 25 113 16.1 43.5 0.58 0.58 0.58 67 1017.7
20260905174606 33 22 3.2 9.7 0.00 0.00 0.00 58 1016.4
20260905173101 34 288 3.2 19.3 0.00 0.00 0.00 54 1016.9
20260905171604 33 265 6.4 17.7 0.00 0.00 0.00 57 1017.0
20260905170104 34 309 4.8 17.7 0.00 0.00 0.00 55 1017.1
20260905164608 33 106 4.8 17.7 0.00 0.00 0.00 56 1017.2
20260905163101 33 165 1.6 12.9 0.00 0.00 0.00 57 1017.4
20260905161601 32 305 4.8 11.3 0.00 0.00 0.00 61 1017.5
20260905160123 33 220 3.2 9.7 0.00 0.00 0.00 61 1017.8
20260905154604 32 197 3.2 8.0 0.00 0.00 0.00 65 1017.7
20260905153111 31 144 1.6 8.0 0.00 0.00 0.00 66 1017.8
20260905151610 31 154 3.2 8.0 0.00 0.00 0.00 65 1017.7
20260905150101 31 163 1.6 9.7 0.00 0.00 0.00 67 1017.6
20260905144603 30 88 1.6 6.4 0.00 0.00 0.00 69 1017.6
20260905143102 30 121 1.6 6.4 0.00 0.00 0.00 77 1017.6
20260905141605 29 94 4.8 9.7 0.00 0.00 0.00 78 1017.7
20260905140109 28 148 3.2 6.4 0.00 0.00 0.00 78 1017.6
20260905134605 28 126 1.6 8.0 0.00 0.00 0.00 79 1017.7
20260905133106 28 0 0.0 0.0 0.00 0.00 0.00 80 1017.7
20260905131611 27 0 0.0 0.0 0.00 0.00 0.00 82 1017.7
20260905130112 26 327 0.0 3.2 0.00 0.00 0.00 86 1017.7
20260905124605 26 0 0.0 0.0 0.00 0.00 0.00 86 1017.6
20260905123101 25 0 1.6 4.8 0.00 0.00 0.00 89 1017.6
20260905121604 23 317 0.0 3.2 0.00 0.00 0.00 89 1017.6
20260905120114 22 0 0.0 1.6 0.00 0.00 0.00 93 1017.4
20260905114608 21 360 0.0 3.2 0.00 0.00 0.00 95 1017.3
20260905113105 21 0 0.0 3.2 0.00 0.00 0.00 95 1017.0
20260905111613 21 327 1.6 4.8 0.00 0.00 0.00 95 1016.8
20260905110105 21 304 3.2 4.8 0.00 0.00 0.00 95 1016.7
20260905104607 21 360 0.0 3.2 0.00 0.00 0.00 95 1016.5
20260905103105 21 360 1.6 4.8 0.00 0.00 0.00 95 1016.6
20260905101606 21 360 1.6 4.8 0.00 0.00 0.00 95 1016.3
20260905100106 21 304 1.6 3.2 0.00 0.00 0.00 95 1016.3
20260905094608 21 0 0.0 1.6 0.00 0.00 0.00 94 1016.2
20260905093105 21 0 0.0 3.2 0.00 0.00 0.00 94 1016.2
20260905091609 21 0 0.0 3.2 0.00 0.00 0.00 93 1016.3
20260905084619 22 309 1.6 6.4 0.00 0.00 0.00 93 1016.2
20260905083104 22 302 4.8 6.4 0.00 0.00 0.00 94 1016.4
20260905081603 22 330 1.6 4.8 0.00 0.00 0.00 93 1016.6
20260905074606 22 306 1.6 6.4 0.00 0.00 0.00 94 1017.1
20260905073106 22 331 3.2 4.8 0.00 0.00 0.00 93 1017.0
20260905071608 22 325 3.2 8.0 0.00 0.00 0.00 94 1017.1
20260905070106 22 328 1.6 3.2 0.00 0.00 0.00 94 1017.3
20260905064559 22 328 1.6 6.4 0.00 0.00 0.00 94 1017.5
20260905063104 22 313 1.6 4.8 0.00 0.00 0.00 94 1017.7
20260905061610 22 101 1.6 4.8 0.00 0.00 0.00 94 1017.8
20260905060104 22 0 0.0 3.2 0.00 0.00 0.00 94 1018.1
20260905054602 22 0 0.0 3.2 0.00 0.00 0.00 93 1018.4
20260905053141 23 104 0.0 4.8 0.00 0.00 0.00 93 1018.5